WTB42F TNCM-MDSD

Flight info

Callsign WTB42F
Flight time 1h 10m
Altitude 34000
Route GOUDA L577 ANTEX/N0374F180 L577 GOSUB
Aircraft A321/M-SDE3FGHIRWY/LB1

Departure

Time 2026-05-04 18:46
Airport Princess Juliana International Airport (TNCM)

Arrival

Time 2026-05-04 19:56
Airport Las Américas International Airport (MDSD)
Time Latitude Longitude Altitude Speed Heading
2026-05-04 17:46 18.04312 -63.11500 29 ft 0 kts 348°
2026-05-04 18:34 18.04298 -63.11497 28 ft 4 kts 346°
2026-05-04 18:35 18.04272 -63.11490 28 ft 4 kts 340°
2026-05-04 18:35 18.04248 -63.11478 28 ft 4 kts 323°
2026-05-04 18:35 18.04232 -63.11461 28 ft 4 kts 275°
2026-05-04 18:35 18.04232 -63.11452 28 ft 0 kts 242°
2026-05-04 18:38 18.04215 -63.11481 28 ft 8 kts 236°
2026-05-04 18:38 18.04186 -63.11521 28 ft 6 kts 232°
2026-05-04 18:38 18.04157 -63.11559 28 ft 10 kts 231°
2026-05-04 18:39 18.04104 -63.11626 28 ft 11 kts 231°
2026-05-04 18:39 18.04066 -63.11691 28 ft 10 kts 251°
2026-05-04 18:39 18.04053 -63.11757 27 ft 9 kts 262°
2026-05-04 18:39 18.04048 -63.11799 27 ft 2 kts 262°
2026-05-04 18:40 18.04046 -63.11812 27 ft 4 kts 262°
2026-05-04 18:40 18.04042 -63.11843 27 ft 2 kts 262°
2026-05-04 18:40 18.04042 -63.11844 27 ft 0 kts 262°
2026-05-04 18:44 18.04041 -63.11847 27 ft 3 kts 261°
2026-05-04 18:44 18.04032 -63.11887 27 ft 12 kts 252°
2026-05-04 18:44 18.03969 -63.11962 27 ft 10 kts 188°
2026-05-04 18:44 18.03948 -63.11934 27 ft 0 kts 89°
2026-05-04 18:45 18.03948 -63.11931 27 ft 5 kts 89°
2026-05-04 18:46 18.03978 -63.11651 28 ft 73 kts 82°
2026-05-04 18:46 18.04089 -63.10913 28 ft 129 kts 81°
2026-05-04 18:46 18.04237 -63.09863 332 ft 147 kts 83°
2026-05-04 18:46 18.04088 -63.08821 929 ft 152 kts 126°
2026-05-04 18:47 18.03191 -63.08226 1595 ft 157 kts 159°
2026-05-04 18:47 18.02082 -63.07934 2125 ft 174 kts 163°
2026-05-04 18:47 18.00827 -63.07688 2338 ft 193 kts 168°
2026-05-04 18:47 17.99413 -63.07957 2480 ft 228 kts 207°
2026-05-04 18:48 17.98318 -63.09288 2745 ft 262 kts 245°
2026-05-04 18:48 17.97845 -63.11207 3259 ft 278 kts 260°
2026-05-04 18:48 17.97664 -63.13250 3949 ft 283 kts 265°
2026-05-04 18:48 17.97583 -63.15326 4704 ft 286 kts 266°
2026-05-04 18:49 17.97510 -63.17428 5347 ft 289 kts 265°
2026-05-04 18:49 17.97410 -63.19543 6006 ft 291 kts 265°
2026-05-04 18:49 17.97278 -63.21672 6684 ft 294 kts 264°
2026-05-04 18:49 17.97120 -63.23829 7364 ft 296 kts 263°
2026-05-04 18:50 17.96947 -63.25963 7972 ft 298 kts 263°
2026-05-04 18:50 17.96762 -63.28127 8584 ft 299 kts 263°
2026-05-04 18:50 17.96572 -63.30306 9209 ft 300 kts 263°
2026-05-04 18:50 17.96381 -63.32473 9839 ft 300 kts 263°
2026-05-04 18:51 17.96188 -63.34666 10288 ft 307 kts 263°
2026-05-04 18:51 17.95985 -63.36963 10397 ft 325 kts 263°
2026-05-04 18:51 17.95772 -63.39387 10516 ft 342 kts 263°
2026-05-04 18:51 17.95552 -63.41926 10722 ft 354 kts 263°
2026-05-04 18:52 17.95331 -63.44519 11146 ft 359 kts 264°
2026-05-04 18:52 17.95108 -63.47141 11627 ft 362 kts 264°
2026-05-04 18:52 17.94881 -63.49783 12111 ft 365 kts 264°
2026-05-04 18:52 17.94650 -63.52446 12578 ft 368 kts 264°
2026-05-04 18:53 17.94416 -63.55132 13054 ft 371 kts 264°
2026-05-04 18:53 17.94181 -63.57845 13508 ft 374 kts 264°
2026-05-04 18:53 17.93942 -63.60576 13953 ft 377 kts 264°
2026-05-04 18:53 17.93700 -63.63322 14400 ft 379 kts 264°
2026-05-04 18:54 17.93530 -63.66082 14868 ft 380 kts 270°
2026-05-04 18:54 17.93798 -63.68829 15333 ft 380 kts 281°
2026-05-04 18:54 17.94316 -63.71551 15815 ft 381 kts 281°
2026-05-04 18:54 17.94836 -63.74278 16309 ft 381 kts 281°
2026-05-04 18:55 17.95350 -63.76992 16795 ft 381 kts 281°
2026-05-04 18:55 17.96380 -63.82459 17736 ft 382 kts 281°
2026-05-04 18:55 17.96895 -63.85194 18170 ft 383 kts 281°
2026-05-04 18:56 17.97412 -63.87947 18543 ft 385 kts 281°
2026-05-04 18:56 17.97932 -63.90714 18871 ft 387 kts 281°
2026-05-04 18:56 17.98454 -63.93501 19191 ft 390 kts 281°
2026-05-04 18:56 17.98977 -63.96306 19511 ft 393 kts 281°
2026-05-04 18:57 17.99506 -63.99139 19793 ft 396 kts 281°
2026-05-04 18:57 18.00039 -64.01991 20076 ft 399 kts 281°
2026-05-04 18:57 18.00575 -64.04868 20361 ft 402 kts 281°
2026-05-04 18:57 18.01112 -64.07763 20641 ft 406 kts 281°
2026-05-04 18:58 18.01654 -64.10688 20924 ft 409 kts 281°
2026-05-04 18:58 18.02201 -64.13633 21200 ft 412 kts 281°
2026-05-04 18:58 18.02754 -64.16596 21476 ft 415 kts 281°
2026-05-04 18:58 18.03313 -64.19586 21752 ft 418 kts 281°
2026-05-04 18:59 18.03875 -64.22597 22024 ft 422 kts 281°
2026-05-04 18:59 18.04438 -64.25630 22292 ft 425 kts 281°
2026-05-04 18:59 18.05004 -64.28694 22559 ft 428 kts 281°
2026-05-04 18:59 18.05575 -64.31773 22815 ft 431 kts 281°
2026-05-04 19:00 18.06151 -64.34874 23081 ft 433 kts 281°
2026-05-04 19:00 18.06729 -64.37992 23328 ft 436 kts 281°
2026-05-04 19:00 18.07308 -64.41134 23589 ft 439 kts 281°
2026-05-04 19:00 18.07888 -64.44293 23811 ft 442 kts 281°
2026-05-04 19:01 18.08470 -64.47465 24067 ft 443 kts 281°
2026-05-04 19:01 18.09056 -64.50650 24347 ft 444 kts 281°
2026-05-04 19:01 18.09634 -64.53791 24618 ft 444 kts 281°
2026-05-04 19:01 18.10223 -64.56985 24894 ft 445 kts 281°
2026-05-04 19:02 18.10621 -64.59143 25079 ft 445 kts 281°
2026-05-04 19:02 18.11395 -64.63368 25426 ft 446 kts 281°
2026-05-04 19:02 18.11792 -64.65549 25610 ft 447 kts 282°
2026-05-04 19:02 18.12377 -64.68759 25873 ft 447 kts 282°
2026-05-04 19:03 18.12962 -64.71953 26138 ft 448 kts 282°
2026-05-04 19:03 18.13547 -64.75163 26393 ft 449 kts 282°
2026-05-04 19:03 18.14134 -64.78374 26781 ft 443 kts 282°
2026-05-04 19:03 18.14704 -64.81483 27848 ft 422 kts 282°
2026-05-04 19:04 18.15249 -64.84468 28638 ft 412 kts 282°
2026-05-04 19:04 18.15786 -64.87409 29065 ft 409 kts 282°
2026-05-04 19:04 18.16320 -64.90341 29357 ft 408 kts 282°
2026-05-04 19:04 18.16854 -64.93278 29600 ft 409 kts 282°
2026-05-04 19:05 18.17383 -64.96195 29823 ft 410 kts 282°
2026-05-04 19:05 18.17885 -64.99159 30051 ft 412 kts 280°
2026-05-04 19:05 18.18280 -65.02145 30242 ft 413 kts 278°
2026-05-04 19:05 18.18598 -65.05142 30423 ft 415 kts 277°
2026-05-04 19:06 18.18882 -65.08172 30540 ft 418 kts 277°
2026-05-04 19:06 18.19160 -65.11228 30663 ft 421 kts 277°
2026-05-04 19:06 18.19451 -65.14303 30775 ft 424 kts 277°
2026-05-04 19:06 18.19762 -65.17410 30893 ft 427 kts 277°
2026-05-04 19:07 18.20088 -65.20506 31008 ft 429 kts 277°
2026-05-04 19:07 18.20429 -65.23636 31128 ft 432 kts 277°
2026-05-04 19:07 18.20774 -65.26782 31252 ft 435 kts 277°
2026-05-04 19:07 18.21120 -65.29951 31367 ft 437 kts 277°
2026-05-04 19:08 18.21465 -65.33142 31492 ft 440 kts 277°
2026-05-04 19:08 18.21807 -65.36332 31611 ft 442 kts 277°
2026-05-04 19:08 18.22149 -65.39548 31732 ft 444 kts 277°
2026-05-04 19:08 18.22492 -65.42783 31851 ft 446 kts 277°
2026-05-04 19:09 18.22830 -65.45998 31968 ft 448 kts 277°
2026-05-04 19:09 18.23172 -65.49267 32097 ft 451 kts 277°
2026-05-04 19:09 18.23515 -65.52547 32222 ft 453 kts 277°
2026-05-04 19:09 18.23860 -65.55849 32389 ft 454 kts 277°
2026-05-04 19:10 18.24204 -65.59146 32601 ft 453 kts 277°
2026-05-04 19:10 18.24549 -65.62442 32835 ft 453 kts 277°
2026-05-04 19:10 18.24894 -65.65730 33077 ft 452 kts 277°
2026-05-04 19:10 18.25237 -65.69008 33321 ft 451 kts 276°
2026-05-04 19:11 18.25580 -65.72288 33547 ft 450 kts 276°
2026-05-04 19:11 18.25923 -65.75560 33782 ft 449 kts 276°
2026-05-04 19:11 18.26265 -65.78818 34009 ft 449 kts 276°
2026-05-04 19:11 18.26603 -65.82081 34210 ft 448 kts 276°
2026-05-04 19:12 18.26939 -65.85338 34399 ft 448 kts 276°
2026-05-04 19:12 18.27608 -65.91842 34814 ft 446 kts 276°
2026-05-04 19:12 18.27940 -65.95078 35017 ft 445 kts 276°
2026-05-04 19:13 18.28270 -65.98313 35215 ft 444 kts 276°
2026-05-04 19:13 18.28600 -66.01542 35416 ft 443 kts 276°
2026-05-04 19:13 18.28931 -66.04763 35616 ft 442 kts 276°
2026-05-04 19:13 18.29260 -66.07970 35820 ft 441 kts 276°
2026-05-04 19:14 18.29593 -66.11182 35986 ft 441 kts 276°
2026-05-04 19:14 18.30243 -66.17526 36035 ft 424 kts 276°
2026-05-04 19:14 18.30552 -66.20569 36036 ft 413 kts 276°
2026-05-04 19:15 18.30855 -66.23571 36037 ft 411 kts 276°
2026-05-04 19:15 18.31459 -66.29529 36036 ft 411 kts 276°
2026-05-04 19:16 18.32061 -66.35492 36037 ft 411 kts 276°
2026-05-04 19:16 18.32658 -66.41470 36034 ft 411 kts 276°
2026-05-04 19:17 18.33260 -66.47448 36034 ft 411 kts 276°
2026-05-04 19:17 18.33857 -66.53438 36039 ft 411 kts 276°
2026-05-04 19:18 18.34455 -66.59407 36041 ft 411 kts 276°
2026-05-04 19:18 18.35052 -66.65394 36043 ft 411 kts 276°
2026-05-04 19:19 18.35649 -66.71389 36049 ft 411 kts 276°
2026-05-04 19:19 18.36242 -66.77368 36046 ft 411 kts 276°
2026-05-04 19:20 18.36827 -66.83360 36048 ft 411 kts 276°
2026-05-04 19:20 18.37412 -66.89346 36051 ft 411 kts 276°
2026-05-04 19:21 18.37997 -66.95336 36053 ft 411 kts 276°
2026-05-04 19:21 18.38583 -67.01312 36055 ft 410 kts 276°
2026-05-04 19:22 18.39166 -67.07283 36055 ft 410 kts 276°
2026-05-04 19:22 18.39739 -67.13219 36052 ft 410 kts 276°
2026-05-04 19:23 18.40307 -67.19183 36051 ft 409 kts 276°
2026-05-04 19:23 18.40877 -67.25151 36047 ft 409 kts 276°
2026-05-04 19:24 18.41453 -67.31110 36043 ft 409 kts 276°
2026-05-04 19:24 18.42022 -67.37064 36037 ft 409 kts 276°
2026-05-04 19:25 18.42592 -67.43055 35724 ft 420 kts 276°
2026-05-04 19:25 18.42889 -67.46160 35383 ft 429 kts 275°
2026-05-04 19:25 18.43191 -67.49302 34675 ft 433 kts 275°
2026-05-04 19:25 18.43493 -67.52476 33904 ft 438 kts 275°
2026-05-04 19:26 18.43793 -67.55666 33344 ft 436 kts 275°
2026-05-04 19:26 18.44088 -67.58837 32808 ft 434 kts 275°
2026-05-04 19:26 18.44383 -67.61994 32284 ft 432 kts 275°
2026-05-04 19:26 18.44678 -67.65133 31755 ft 430 kts 276°
2026-05-04 19:27 18.44975 -67.68261 31240 ft 428 kts 276°
2026-05-04 19:27 18.45268 -67.71368 30728 ft 426 kts 276°
2026-05-04 19:27 18.45556 -67.74475 30218 ft 425 kts 276°
2026-05-04 19:27 18.45842 -67.77568 29652 ft 423 kts 276°
2026-05-04 19:28 18.46128 -67.80636 29149 ft 419 kts 276°
2026-05-04 19:28 18.46411 -67.83679 28652 ft 416 kts 276°
2026-05-04 19:28 18.46695 -67.86697 28158 ft 412 kts 276°
2026-05-04 19:28 18.46978 -67.89687 27673 ft 409 kts 276°
2026-05-04 19:29 18.47255 -67.92661 27197 ft 406 kts 275°
2026-05-04 19:29 18.47525 -67.95611 26725 ft 403 kts 275°
2026-05-04 19:29 18.47789 -67.98537 26266 ft 400 kts 275°
2026-05-04 19:29 18.47889 -68.01446 26037 ft 397 kts 268°
2026-05-04 19:30 18.47821 -68.04355 26025 ft 398 kts 268°
2026-05-04 19:30 18.47761 -68.07278 26032 ft 399 kts 268°
2026-05-04 19:30 18.47704 -68.10201 26031 ft 399 kts 268°
2026-05-04 19:30 18.47647 -68.13118 26033 ft 399 kts 268°
2026-05-04 19:31 18.47588 -68.16039 26029 ft 398 kts 268°
2026-05-04 19:31 18.47524 -68.18947 26031 ft 398 kts 268°
2026-05-04 19:31 18.47457 -68.21872 26031 ft 398 kts 268°
2026-05-04 19:31 18.47394 -68.24791 26030 ft 398 kts 268°
2026-05-04 19:32 18.47334 -68.27705 26029 ft 398 kts 268°
2026-05-04 19:32 18.47274 -68.30618 26030 ft 397 kts 268°
2026-05-04 19:32 18.47210 -68.33524 26029 ft 397 kts 268°
2026-05-04 19:32 18.47143 -68.36427 26026 ft 394 kts 268°
2026-05-04 19:33 18.47076 -68.39323 26030 ft 396 kts 268°
2026-05-04 19:33 18.47010 -68.42227 26030 ft 397 kts 268°
2026-05-04 19:33 18.46944 -68.45133 26030 ft 397 kts 268°
2026-05-04 19:33 18.46879 -68.48031 26031 ft 397 kts 268°
2026-05-04 19:34 18.46811 -68.50940 26028 ft 395 kts 268°
2026-05-04 19:34 18.46745 -68.53773 26024 ft 379 kts 268°
2026-05-04 19:34 18.46681 -68.56508 26033 ft 371 kts 268°
2026-05-04 19:34 18.46619 -68.59211 26032 ft 369 kts 268°
2026-05-04 19:35 18.46556 -68.61908 26031 ft 368 kts 268°
2026-05-04 19:35 18.46494 -68.64607 26028 ft 367 kts 268°
2026-05-04 19:35 18.46432 -68.67285 25650 ft 365 kts 268°
2026-05-04 19:35 18.46367 -68.69950 25229 ft 363 kts 267°
2026-05-04 19:36 18.46302 -68.72602 24818 ft 362 kts 267°
2026-05-04 19:36 18.46236 -68.75244 24418 ft 360 kts 267°
2026-05-04 19:36 18.46170 -68.77874 24025 ft 359 kts 266°
2026-05-04 19:36 18.46101 -68.80495 23624 ft 358 kts 266°
2026-05-04 19:37 18.46017 -68.83105 23176 ft 356 kts 266°
2026-05-04 19:37 18.45924 -68.85696 22770 ft 352 kts 266°
2026-05-04 19:37 18.45829 -68.88255 22014 ft 348 kts 266°
2026-05-04 19:37 18.45736 -68.90784 21233 ft 343 kts 267°
2026-05-04 19:38 18.45647 -68.93271 20512 ft 336 kts 267°
2026-05-04 19:38 18.45560 -68.95709 19830 ft 330 kts 268°
2026-05-04 19:38 18.45475 -68.98089 19152 ft 325 kts 268°
2026-05-04 19:38 18.45391 -69.00444 18483 ft 320 kts 268°
2026-05-04 19:39 18.45307 -69.02770 17729 ft 315 kts 268°
2026-05-04 19:39 18.45225 -69.05035 16961 ft 313 kts 268°
2026-05-04 19:39 18.45145 -69.07343 16196 ft 310 kts 268°
2026-05-04 19:39 18.45068 -69.09558 15673 ft 302 kts 268°
2026-05-04 19:40 18.44994 -69.11722 15436 ft 290 kts 268°
2026-05-04 19:40 18.44920 -69.13785 15212 ft 275 kts 268°
2026-05-04 19:40 18.44846 -69.15765 14690 ft 268 kts 268°
2026-05-04 19:40 18.44772 -69.17720 14048 ft 267 kts 267°
2026-05-04 19:41 18.44699 -69.19675 13336 ft 267 kts 266°
2026-05-04 19:41 18.44625 -69.21628 12631 ft 266 kts 266°
2026-05-04 19:41 18.44553 -69.23577 11955 ft 266 kts 266°
2026-05-04 19:41 18.44483 -69.25519 11301 ft 265 kts 266°
2026-05-04 19:42 18.44421 -69.27465 10844 ft 267 kts 266°
2026-05-04 19:42 18.44394 -69.28781 10588 ft 266 kts 266°
2026-05-04 19:42 18.44363 -69.30725 10219 ft 265 kts 266°
2026-05-04 19:42 18.44334 -69.32660 9852 ft 264 kts 266°
2026-05-04 19:43 18.44306 -69.34593 9444 ft 263 kts 267°
2026-05-04 19:43 18.44277 -69.36520 9041 ft 263 kts 266°
2026-05-04 19:43 18.44246 -69.38444 8653 ft 262 kts 266°
2026-05-04 19:43 18.44214 -69.40368 8366 ft 263 kts 267°
2026-05-04 19:44 18.44258 -69.42213 8084 ft 264 kts 277°
2026-05-04 19:44 18.44848 -69.44032 7791 ft 264 kts 300°
2026-05-04 19:44 18.46008 -69.45522 7510 ft 263 kts 321°
2026-05-04 19:44 18.47439 -69.46721 7232 ft 263 kts 322°
2026-05-04 19:45 18.48864 -69.47914 6948 ft 262 kts 322°
2026-05-04 19:45 18.50286 -69.49112 6685 ft 261 kts 322°
2026-05-04 19:45 18.51696 -69.50301 6401 ft 260 kts 323°
2026-05-04 19:45 18.53105 -69.51489 6101 ft 259 kts 323°
2026-05-04 19:46 18.54503 -69.52667 5805 ft 257 kts 323°
2026-05-04 19:46 18.55894 -69.53840 5523 ft 253 kts 322°
2026-05-04 19:46 18.57232 -69.54973 5242 ft 239 kts 322°
2026-05-04 19:46 18.58517 -69.56062 4960 ft 235 kts 322°
2026-05-04 19:47 18.59787 -69.57136 4668 ft 234 kts 322°
2026-05-04 19:47 18.61031 -69.58191 4375 ft 233 kts 321°
2026-05-04 19:47 18.62299 -69.59253 4079 ft 233 kts 321°
2026-05-04 19:47 18.63577 -69.60296 3785 ft 232 kts 322°
2026-05-04 19:48 18.64850 -69.61329 3489 ft 230 kts 321°
2026-05-04 19:48 18.66114 -69.62348 3208 ft 228 kts 321°
2026-05-04 19:48 18.67386 -69.63343 3026 ft 229 kts 322°
2026-05-04 19:48 18.68667 -69.64344 2983 ft 229 kts 321°
2026-05-04 19:49 18.69940 -69.65357 2984 ft 230 kts 317°
2026-05-04 19:49 18.70833 -69.66719 2991 ft 224 kts 286°
2026-05-04 19:49 18.71011 -69.68312 3006 ft 217 kts 258°
2026-05-04 19:49 18.70519 -69.69751 2986 ft 207 kts 233°
2026-05-04 19:50 18.69502 -69.70789 3000 ft 201 kts 208°
2026-05-04 19:50 18.68288 -69.71256 3012 ft 177 kts 189°
2026-05-04 19:50 18.67113 -69.71541 2994 ft 171 kts 190°
2026-05-04 19:50 18.65960 -69.71825 3001 ft 169 kts 189°
2026-05-04 19:51 18.64810 -69.72110 3006 ft 170 kts 192°
2026-05-04 19:51 18.63661 -69.72394 3007 ft 170 kts 189°
2026-05-04 19:51 18.62504 -69.72679 2994 ft 170 kts 191°
2026-05-04 19:51 18.61348 -69.72963 2997 ft 170 kts 188°
2026-05-04 19:52 18.60190 -69.73142 2994 ft 167 kts 177°
2026-05-04 19:52 18.59061 -69.72874 3020 ft 168 kts 159°
2026-05-04 19:52 18.58023 -69.72478 2990 ft 149 kts 160°
2026-05-04 19:52 18.57070 -69.72126 2994 ft 143 kts 160°
2026-05-04 19:53 18.56137 -69.71783 2994 ft 141 kts 160°
2026-05-04 19:53 18.55211 -69.71442 3009 ft 141 kts 160°
2026-05-04 19:53 18.54271 -69.71089 2690 ft 147 kts 161°
2026-05-04 19:53 18.53271 -69.70734 2269 ft 152 kts 162°
2026-05-04 19:54 18.52313 -69.70377 2068 ft 143 kts 160°
2026-05-04 19:54 18.51386 -69.70028 1839 ft 139 kts 160°
2026-05-04 19:54 18.50475 -69.69688 1594 ft 139 kts 163°
2026-05-04 19:54 18.49566 -69.69351 1335 ft 138 kts 163°
2026-05-04 19:55 18.48666 -69.69017 1140 ft 140 kts 162°
2026-05-04 19:55 18.47740 -69.68673 918 ft 141 kts 162°
2026-05-04 19:55 18.46804 -69.68315 722 ft 142 kts 159°
2026-05-04 19:55 18.45886 -69.67956 389 ft 142 kts 161°
2026-05-04 19:56 18.44976 -69.67623 217 ft 138 kts 163°
2026-05-04 19:56 18.44095 -69.67303 69 ft 132 kts 162°
2026-05-04 19:56 18.43420 -69.67058 67 ft 57 kts 160°
2026-05-04 19:56 18.43169 -69.66964 66 ft 34 kts 161°
2026-05-04 19:57 18.43006 -69.66909 69 ft 18 kts 173°
2026-05-04 19:57 18.42933 -69.66961 63 ft 10 kts 251°
2026-05-04 19:57 18.42938 -69.67026 68 ft 9 kts 276°
2026-05-04 19:57 18.42945 -69.67128 66 ft 20 kts 274°
2026-05-04 19:58 18.42952 -69.67217 63 ft 8 kts 277°
2026-05-04 19:58 18.42959 -69.67281 58 ft 12 kts 277°
2026-05-04 19:58 18.42970 -69.67346 60 ft 7 kts 284°
2026-05-04 19:58 18.42993 -69.67391 55 ft 9 kts 309°
2026-05-04 19:59 18.43067 -69.67441 60 ft 14 kts 338°
2026-05-04 19:59 18.43148 -69.67471 60 ft 11 kts 341°
2026-05-04 19:59 18.43216 -69.67496 60 ft 9 kts 341°
2026-05-04 19:59 18.43270 -69.67516 64 ft 7 kts 341°
2026-05-04 20:00 18.43310 -69.67535 60 ft 5 kts 326°
2026-05-04 20:00 18.43326 -69.67571 66 ft 6 kts 275°
2026-05-04 20:00 18.43310 -69.67600 64 ft 4 kts 229°
2026-05-04 20:00 18.43280 -69.67625 68 ft 6 kts 217°
2026-05-04 20:01 18.43255 -69.67645 63 ft 4 kts 218°
2026-05-04 20:01 18.43247 -69.67651 62 ft 3 kts 217°
2026-05-04 20:01 18.43242 -69.67655 65 ft 0 kts 217°